#�ϑ�����,���ϕ���,���ϕ���,�ő啗��,�ő啗����������,�ő�u�ԕ���,�ő�u�ԕ�����������
#(�N����),(m/s)   ,(16����),(m/s)   ,(16����)        ,(m/s)       ,(16����)            
2014/2/16 0:01,6.7,16,6.8,16,7.8,16
2014/2/16 0:02,6.5,16,6.6,16,8.9,16
2014/2/16 0:03,6.1,16,6.6,16,10,16
2014/2/16 0:04,5.6,16,6.1,16,5,16
2014/2/16 0:05,5.6,16,5.6,16,9.9,16
2014/2/16 0:06,5.4,16,5.6,16,7.9,16
2014/2/16 0:07,5,16,5.3,16,7.6,1
2014/2/16 0:08,4.8,16,4.9,16,7.1,16
2014/2/16 0:09,4.6,16,4.8,16,6.5,14
2014/2/16 0:10,4.4,16,4.6,16,3.8,16
2014/2/16 0:11,4.2,16,4.4,16,5.1,15
2014/2/16 0:12,4,16,4.2,16,5.7,1
2014/2/16 0:13,3.7,15,3.9,16,4.3,14
2014/2/16 0:14,3.9,15,3.9,16,10.7,1
2014/2/16 0:15,3.9,15,3.9,16,12.3,16
2014/2/16 0:16,3.9,15,3.9,16,7.9,15
2014/2/16 0:17,3.9,15,3.9,16,8.4,16
2014/2/16 0:18,3.8,15,3.9,16,8.5,16
2014/2/16 0:19,3.8,15,3.8,16,5.8,14
2014/2/16 0:20,4.1,15,4.1,16,7.7,16
2014/2/16 0:21,4.4,15,4.4,15,8.6,1
2014/2/16 0:22,4.5,15,4.5,15,7.4,15
2014/2/16 0:23,4.7,16,4.7,16,6.9,16
2014/2/16 0:24,4.9,15,4.9,15,7.9,16
2014/2/16 0:25,4.9,15,4.9,15,9.8,15
2014/2/16 0:26,5.1,15,5.1,15,10.6,15
2014/2/16 0:27,5.2,15,5.3,15,8.6,13
2014/2/16 0:28,5.2,15,5.3,15,6.3,12
2014/2/16 0:29,5,15,5.2,15,3.7,14
2014/2/16 0:30,4.9,15,5,15,6,16
2014/2/16 0:31,4.7,15,4.9,15,5.8,1
2014/2/16 0:32,4.9,15,4.9,15,12.2,16
2014/2/16 0:33,5.2,15,5.2,15,13.2,15
2014/2/16 0:34,5.1,15,5.2,15,10.2,15
2014/2/16 0:35,4.7,15,5.1,15,2.4,14
2014/2/16 0:36,4.2,15,4.6,15,5.4,9
2014/2/16 0:37,3.8,15,4.2,15,3,9
2014/2/16 0:38,3.8,15,3.8,15,6,11
2014/2/16 0:39,3.9,14,3.9,15,5,11
2014/2/16 0:40,3.9,14,3.9,15,5.8,12
2014/2/16 0:41,4.1,13,4.1,15,9.3,15
2014/2/16 0:42,4,13,4.2,15,8.3,14
2014/2/16 0:43,3.8,13,4,15,9,1
2014/2/16 0:44,3.6,13,3.8,15,8.5,16
2014/2/16 0:45,4,14,4,15,9.2,16
2014/2/16 0:46,4.2,14,4.2,15,8.1,16
2014/2/16 0:47,4.2,14,4.2,13,7.8,15
2014/2/16 0:48,4.2,15,4.2,13,6.9,16
2014/2/16 0:49,4.2,15,4.2,13,6,2
2014/2/16 0:50,4.1,16,4.2,13,6.3,16
2014/2/16 0:51,3.8,16,4.1,13,6,1
2014/2/16 0:52,3.9,16,3.9,14,12.3,15
2014/2/16 0:53,3.9,16,4.1,14,13.1,15
2014/2/16 0:54,4.3,16,4.3,16,10.9,12
2014/2/16 0:55,4.3,16,4.4,16,9.4,15
2014/2/16 0:56,4.7,16,4.7,16,16,16
2014/2/16 0:57,5,16,5,16,9.4,15
2014/2/16 0:58,4.9,16,5,16,6.9,15
2014/2/16 0:59,4.8,16,4.9,16,7.6,15
2014/2/16 1:00,5,15,5,16,7.9,16
2014/2/16 1:01,5,15,5,16,7.2,1
2014/2/16 1:02,4.7,15,5,16,5.1,16
2014/2/16 1:03,4.7,15,4.7,16,10.9,16
2014/2/16 1:04,4.4,16,4.7,16,6.8,15
2014/2/16 1:05,4.2,16,4.3,16,6,14
2014/2/16 1:06,3.7,16,4.2,16,5.4,16
2014/2/16 1:07,3.8,16,3.8,16,11.5,15
2014/2/16 1:08,4.1,16,4.1,15,7.2,16
2014/2/16 1:09,4.2,16,4.2,15,6.4,16
2014/2/16 1:10,4,16,4.2,15,5.5,2
2014/2/16 1:11,4,16,4,15,6.2,16
2014/2/16 1:12,4.2,16,4.3,15,8.3,2
2014/2/16 1:13,4,16,4.2,15,6.8,16
2014/2/16 1:14,3.9,16,4.1,16,5.5,2
2014/2/16 1:15,3.8,16,3.9,16,3.1,16
2014/2/16 1:16,3.8,16,3.8,16,9.2,1
2014/2/16 1:17,3.9,16,4,16,9.7,1
2014/2/16 1:18,3.9,1,3.9,16,8.4,1
2014/2/16 1:19,3.7,1,3.9,16,6,2
2014/2/16 1:20,3.9,1,3.9,16,6.9,16
2014/2/16 1:21,3.9,1,3.9,16,6.5,16
2014/2/16 1:22,3.9,1,4,16,6.3,16
2014/2/16 1:23,3.7,1,4,16,5.8,15
2014/2/16 1:24,3.7,1,3.7,16,4.1,16
2014/2/16 1:25,4,1,4,16,9.2,2
2014/2/16 1:26,4.3,16,4.3,1,15.1,16
2014/2/16 1:27,4.1,16,4.3,1,8.2,16
2014/2/16 1:28,4.3,16,4.3,1,11.1,16
2014/2/16 1:29,4.3,16,4.4,16,5.5,14
2014/2/16 1:30,4.5,16,4.5,16,11.4,15
2014/2/16 1:31,4.5,16,4.6,16,8.5,14
2014/2/16 1:32,4.5,16,4.6,16,8.5,2
2014/2/16 1:33,4.7,16,4.7,16,7.6,16
2014/2/16 1:34,4.7,16,4.8,16,5.2,15
2014/2/16 1:35,4.5,15,4.7,16,5.7,16
2014/2/16 1:36,4.1,15,4.5,16,3.2,14
2014/2/16 1:37,3.8,15,4,16,5.1,14
2014/2/16 1:38,3.4,15,3.8,16,5.2,13
2014/2/16 1:39,3.6,15,3.6,16,8.7,1
2014/2/16 1:40,3.4,15,3.7,16,6.3,3
2014/2/16 1:41,3.1,16,3.3,16,4.9,8
2014/2/16 1:42,2.9,16,3.1,16,3.9,3
2014/2/16 1:43,2.8,16,2.9,16,7.6,1
2014/2/16 1:44,2.9,16,2.9,16,6.3,2
2014/2/16 1:45,3,16,3,15,8.9,1
2014/2/16 1:46,3.1,1,3.1,15,7.9,16
2014/2/16 1:47,3.2,16,3.2,15,6,14
2014/2/16 1:48,3.4,16,3.4,15,7.9,14
2014/2/16 1:49,3.1,16,3.4,15,5.2,14
2014/2/16 1:50,2.9,16,3.1,16,3,14
2014/2/16 1:51,3.3,16,3.3,16,9.9,16
2014/2/16 1:52,3.4,15,3.4,16,7.2,1
2014/2/16 1:53,3.7,15,3.7,15,7.8,16
2014/2/16 1:54,3.9,15,3.9,15,7.7,15
2014/2/16 1:55,3.6,15,3.9,15,5.5,1
2014/2/16 1:56,3.8,15,3.8,15,5.8,1
2014/2/16 1:57,3.6,16,3.8,15,4.3,16
2014/2/16 1:58,3.3,16,3.5,15,4.4,15
2014/2/16 1:59,3.3,16,3.4,15,4.3,16
2014/2/16 2:00,3.3,16,3.4,15,1.9,2
2014/2/16 2:01,2.9,16,3.3,15,1.4,16
2014/2/16 2:02,2.7,16,2.8,15,4.1,15
2014/2/16 2:03,2.4,16,2.7,15,2.7,13
2014/2/16 2:04,2,16,2.3,15,2.7,12
2014/2/16 2:05,1.9,16,2,15,2.4,12
2014/2/16 2:06,1.6,16,1.9,16,2,14
2014/2/16 2:07,1.5,16,1.6,16,1.5,6
2014/2/16 2:08,1.5,15,1.5,16,4.2,15
2014/2/16 2:09,1.4,14,1.5,16,2.9,13
2014/2/16 2:10,1.6,13,1.6,16,3.2,13
2014/2/16 2:11,1.7,13,1.7,16,3.3,13
2014/2/16 2:12,1.7,13,1.8,16,2.5,12
2014/2/16 2:13,1.7,13,1.7,16,4.1,11
2014/2/16 2:14,1.9,12,1.9,16,5,9
2014/2/16 2:15,1.9,12,1.9,16,3,10
2014/2/16 2:16,1.9,12,1.9,12,2.6,1
2014/2/16 2:17,1.9,12,2,13,2,12
2014/2/16 2:18,1.8,12,1.9,13,1.5,11
2014/2/16 2:19,1.8,12,1.8,13,4.2,13
2014/2/16 2:20,1.8,12,1.8,13,3.9,12
2014/2/16 2:21,1.8,12,1.8,13,2.9,14
2014/2/16 2:22,1.8,12,1.8,13,5.2,12
2014/2/16 2:23,1.7,12,1.7,13,3.9,9
2014/2/16 2:24,1.5,12,1.7,13,2.5,8
2014/2/16 2:25,1.6,12,1.6,13,4.5,9
2014/2/16 2:26,1.6,12,1.6,13,3.5,13
2014/2/16 2:27,1.8,12,1.8,12,3.8,14
2014/2/16 2:28,1.9,12,1.9,12,3.2,13
2014/2/16 2:29,1.9,12,2,12,3.2,12
2014/2/16 2:30,1.9,12,2,12,4.4,12
2014/2/16 2:31,1.8,12,1.9,12,2,9
2014/2/16 2:32,1.7,12,1.8,12,1.3,9
2014/2/16 2:33,1.8,11,1.8,12,3.5,10
2014/2/16 2:34,1.9,12,1.9,12,3.6,13
2014/2/16 2:35,2,12,2,12,4.1,13
2014/2/16 2:36,1.9,12,2,12,3,14
2014/2/16 2:37,1.8,12,1.9,12,2.5,8
2014/2/16 2:38,1.8,12,1.8,12,3.1,12
2014/2/16 2:39,1.7,12,1.8,12,3.1,12
2014/2/16 2:40,1.8,12,1.8,12,4.2,13
2014/2/16 2:41,1.9,12,1.9,12,3.7,13
2014/2/16 2:42,1.9,13,1.9,12,2.4,11
2014/2/16 2:43,2,13,2,12,4.7,10
2014/2/16 2:44,1.9,12,2,12,3.1,10
2014/2/16 2:45,1.6,12,1.9,12,0.9,7
2014/2/16 2:46,1.6,11,1.6,13,2,9
2014/2/16 2:47,1.5,11,1.6,13,1.5,16
2014/2/16 2:48,1.5,11,1.6,13,4.5,11
2014/2/16 2:49,1.6,11,1.6,13,3.7,15
2014/2/16 2:50,1.6,12,1.6,13,4.8,12
2014/2/16 2:51,1.6,11,1.6,13,3.7,14
2014/2/16 2:52,1.7,12,1.7,13,2.7,15
2014/2/16 2:53,1.7,12,1.7,13,3.6,12
2014/2/16 2:54,1.8,12,1.8,12,3.6,10
2014/2/16 2:55,1.9,12,1.9,12,3.8,10
2014/2/16 2:56,2.1,12,2.1,12,4.2,10
2014/2/16 2:57,2.3,12,2.3,12,3.3,10
2014/2/16 2:58,2.3,12,2.3,12,3.1,13
2014/2/16 2:59,2.3,12,2.3,12,2.4,13
2014/2/16 3:00,2.1,12,2.3,12,2.2,12
2014/2/16 3:01,2.1,12,2.1,12,4.4,16
2014/2/16 3:02,2.1,12,2.1,12,2.1,13
2014/2/16 3:03,2,12,2.1,12,2.6,12
2014/2/16 3:04,1.9,12,2,12,1.6,11
2014/2/16 3:05,1.7,12,1.9,12,1.6,8
2014/2/16 3:06,1.5,12,1.7,12,1.6,12
2014/2/16 3:07,1.4,13,1.5,12,1.9,12
2014/2/16 3:08,1.3,13,1.4,12,2,16
2014/2/16 3:09,1.2,13,1.3,12,1.3,15
2014/2/16 3:10,1.2,12,1.2,12,1.9,13
2014/2/16 3:11,1,12,1.1,12,1.6,7
2014/2/16 3:12,1,11,1,12,1.3,8
2014/2/16 3:13,0.8,12,0.9,12,1.4,9
2014/2/16 3:14,0.8,11,0.8,12,1.6,8
2014/2/16 3:15,0.8,11,0.8,12,0.8,8
2014/2/16 3:16,0.8,11,0.8,12,0.9,14
2014/2/16 3:17,0.8,12,0.8,13,1.9,15
2014/2/16 3:18,0.8,12,0.8,13,1.9,13
2014/2/16 3:19,0.8,12,0.8,12,1.5,12
2014/2/16 3:20,0.8,12,0.8,12,2.5,9
2014/2/16 3:21,0.8,12,0.8,12,1.5,3
2014/2/16 3:22,0.8,13,0.8,11,1.5,3
2014/2/16 3:23,0.9,12,0.9,13,1.5,5
2014/2/16 3:24,0.9,1,0.9,13,1.8,5
2014/2/16 3:25,1,1,1,2,2.5,15
2014/2/16 3:26,1.2,1,1.2,1,3,16
2014/2/16 3:27,1.1,1,1.2,1,1.9,13
2014/2/16 3:28,1.1,1,1.2,1,2.4,16
2014/2/16 3:29,1.1,2,1.1,1,2.2,2
2014/2/16 3:30,1.1,2,1.1,1,1.4,4
2014/2/16 3:31,1.1,2,1.1,1,1.4,1
2014/2/16 3:32,1,1,1,1,0.9,15
2014/2/16 3:33,1,1,1,1,2,1
2014/2/16 3:34,1.1,16,1.1,1,2.7,2
2014/2/16 3:35,1,16,1.1,1,1.1,1
2014/2/16 3:36,0.9,16,0.9,1,2.4,16
2014/2/16 3:37,1,16,1,1,4.2,16
2014/2/16 3:38,1.2,16,1.2,16,5.2,16
2014/2/16 3:39,1.3,16,1.3,1,3.3,15
2014/2/16 3:40,1.5,16,1.5,16,4.4,1
2014/2/16 3:41,1.7,16,1.7,16,5.2,15
2014/2/16 3:42,1.9,16,1.9,16,4.8,16
2014/2/16 3:43,2.1,16,2.1,16,4.2,15
2014/2/16 3:44,2.3,15,2.3,15,4.7,15
2014/2/16 3:45,2.7,15,2.7,15,7.5,15
2014/2/16 3:46,2.8,15,2.8,15,4.4,12
2014/2/16 3:47,2.8,15,2.8,15,4.4,1
2014/2/16 3:48,2.6,15,2.8,15,3.6,14
2014/2/16 3:49,2.7,15,2.7,15,5.4,1
2014/2/16 3:50,2.8,15,2.8,15,5.2,16
2014/2/16 3:51,2.8,15,2.8,15,4.1,16
2014/2/16 3:52,2.8,15,2.8,15,4.5,15
2014/2/16 3:53,2.7,15,2.8,15,3.2,15
2014/2/16 3:54,2.5,15,2.7,15,2.7,2
2014/2/16 3:55,2.3,15,2.5,15,6.1,16
2014/2/16 3:56,2.5,16,2.5,15,5,16
2014/2/16 3:57,2.4,16,2.5,15,3.7,1
2014/2/16 3:58,2.5,16,2.5,15,5.7,2
2014/2/16 3:59,2.4,16,2.6,15,5.6,1
2014/2/16 4:00,2.3,16,2.4,15,3.2,14
2014/2/16 4:01,2.4,16,2.4,15,4.8,16
2014/2/16 4:02,2.4,16,2.4,15,5.2,1
2014/2/16 4:03,2.5,16,2.5,15,6.3,15
2014/2/16 4:04,2.9,16,2.9,16,8.7,16
2014/2/16 4:05,3,16,3,16,6.2,16
2014/2/16 4:06,3.1,16,3.1,16,7.2,16
2014/2/16 4:07,3.2,16,3.2,16,6.8,16
2014/2/16 4:08,3.3,16,3.3,16,6.1,15
2014/2/16 4:09,3.4,16,3.4,16,6,14
2014/2/16 4:10,3.5,16,3.5,16,4.4,13
2014/2/16 4:11,3.5,16,3.5,16,5.4,14
2014/2/16 4:12,3.5,16,3.5,16,5.4,16
2014/2/16 4:13,3.4,16,3.5,16,5.4,9
2014/2/16 4:14,3.2,16,3.4,16,5.6,16
2014/2/16 4:15,3.2,16,3.2,16,5.8,1
2014/2/16 4:16,3,16,3.1,16,7.2,1
2014/2/16 4:17,3.1,16,3.1,16,6.7,16
2014/2/16 4:18,2.8,16,3.1,16,3.5,1
2014/2/16 4:19,2.7,16,2.8,16,4.8,14
2014/2/16 4:20,2.7,16,2.7,16,4.9,15
2014/2/16 4:21,2.9,16,2.9,16,6.9,15
2014/2/16 4:22,2.8,16,2.9,16,3.9,15
2014/2/16 4:23,2.8,16,2.9,16,4.4,1
2014/2/16 4:24,3,16,3,16,7.8,16
2014/2/16 4:25,3.1,16,3.1,16,6.4,16
2014/2/16 4:26,3.1,16,3.1,16,8.2,16
2014/2/16 4:27,3.3,16,3.3,16,9.7,16
2014/2/16 4:28,3.5,16,3.5,16,6.2,16
2014/2/16 4:29,3.6,16,3.7,16,7.5,1
2014/2/16 4:30,3.8,16,3.8,16,8.1,16
2014/2/16 4:31,4,16,4,16,9.8,15
2014/2/16 4:32,4.2,16,4.2,16,6.7,16
2014/2/16 4:33,4.4,16,4.4,16,7,16
2014/2/16 4:34,4.5,16,4.6,16,7.4,16
2014/2/16 4:35,4.4,16,4.6,16,4.8,1
2014/2/16 4:36,4.6,16,4.7,16,11,16
2014/2/16 4:37,4.8,16,4.8,16,10.9,16
2014/2/16 4:38,4.8,16,4.8,16,7.1,15
2014/2/16 4:39,5.2,16,5.2,16,13,15
2014/2/16 4:40,5.2,16,5.3,16,7.1,16
2014/2/16 4:41,4.9,16,5.2,16,7,16
2014/2/16 4:42,5.1,16,5.1,16,9,1
2014/2/16 4:43,5.1,16,5.1,16,7.7,16
2014/2/16 4:44,5.3,16,5.3,16,9.1,16
2014/2/16 4:45,5.2,16,5.2,16,6,14
2014/2/16 4:46,5,16,5.2,16,6.5,14
2014/2/16 4:47,5.1,16,5.1,16,12.1,15
2014/2/16 4:48,5.4,16,5.4,16,9.1,15
2014/2/16 4:49,5.3,16,5.4,16,10.6,16
2014/2/16 4:50,5.3,16,5.4,16,8.7,16
2014/2/16 4:51,5.8,16,5.8,16,12.1,15
2014/2/16 4:52,5.8,16,5.8,16,9,15
2014/2/16 4:53,6.1,16,6.1,16,11.8,16
2014/2/16 4:54,6,16,6,16,10.5,1
2014/2/16 4:55,6.4,16,6.4,16,12.2,16
2014/2/16 4:56,6.7,16,6.7,16,11.9,16
2014/2/16 4:57,6.5,16,6.8,16,9.7,15
2014/2/16 4:58,6.5,16,6.5,16,11.5,1
2014/2/16 4:59,6.7,16,6.7,16,14.1,16
2014/2/16 5:00,6.9,16,6.9,16,13.5,16
2014/2/16 5:01,7.2,16,7.2,16,16.5,16
2014/2/16 5:02,7.3,16,7.3,16,9.7,15
2014/2/16 5:03,6.9,16,7.3,16,6.8,3
2014/2/16 5:04,6.7,16,6.9,16,6.7,16
2014/2/16 5:05,6.5,16,6.6,16,9.8,16
2014/2/16 5:06,6.4,16,6.6,16,8.2,16
2014/2/16 5:07,6.2,16,6.4,16,6.3,16
2014/2/16 5:08,6.1,16,6.2,16,11.6,1
2014/2/16 5:09,5.9,16,6.2,16,13,16
2014/2/16 5:10,6,16,6.1,16,12.2,15
2014/2/16 5:11,5.7,16,6,16,14.8,14
2014/2/16 5:12,5.6,16,5.6,16,9.9,15
2014/2/16 5:13,5.9,16,5.9,16,12.4,15
2014/2/16 5:14,6.6,16,6.6,16,18.1,15
2014/2/16 5:15,7.1,16,7.1,16,13.8,16
2014/2/16 5:16,7,16,7,16,12.1,16
2014/2/16 5:17,7.6,16,7.6,16,14.7,15
2014/2/16 5:18,7.7,16,7.8,16,14,15
2014/2/16 5:19,7.5,16,7.7,16,9.4,15
2014/2/16 5:20,7.1,16,7.5,16,6.9,15
2014/2/16 5:21,6.9,16,7.1,16,9.7,1
2014/2/16 5:22,7,16,7.1,16,10.5,15
2014/2/16 5:23,6.8,16,7,16,9,15
2014/2/16 5:24,6.3,16,6.8,16,9.7,16
2014/2/16 5:25,5.8,16,6.3,16,8.4,15
2014/2/16 5:26,5.8,16,5.9,16,10.2,16
2014/2/16 5:27,5.9,16,6,16,14.2,16
2014/2/16 5:28,5.9,16,5.9,16,12.1,15
2014/2/16 5:29,5.8,16,5.9,16,9.1,16
2014/2/16 5:30,6.2,16,6.2,16,9.1,15
2014/2/16 5:31,6,16,6.2,16,6.4,16
2014/2/16 5:32,5.8,16,6,16,12.6,16
2014/2/16 5:33,6.1,16,6.1,16,14.8,1
2014/2/16 5:34,6,16,6.1,16,9.3,16
2014/2/16 5:35,6.2,16,6.2,16,11.3,16
2014/2/16 5:36,6.2,16,6.3,16,9.3,14
2014/2/16 5:37,5.7,16,6.1,16,7.4,16
2014/2/16 5:38,5.4,15,5.6,16,12.3,16
2014/2/16 5:39,5.5,16,5.5,16,10.3,15
2014/2/16 5:40,5.3,15,5.5,16,8.9,15
2014/2/16 5:41,5.4,15,5.4,16,8.4,16
2014/2/16 5:42,5.7,15,5.7,16,10.5,15
2014/2/16 5:43,5.7,15,5.7,16,10.6,15
2014/2/16 5:44,5.7,15,5.9,16,10.3,15
2014/2/16 5:45,5.7,15,5.8,16,12.2,15
2014/2/16 5:46,5.7,15,5.8,16,9.1,15
2014/2/16 5:47,5.8,15,5.8,15,9.1,15
2014/2/16 5:48,6.1,15,6.2,15,10.2,16
2014/2/16 5:49,6.2,15,6.2,15,10.2,16
2014/2/16 5:50,6.5,16,6.5,16,13.8,1
2014/2/16 5:51,6.5,16,6.5,16,8.6,15
2014/2/16 5:52,6.3,16,6.5,16,10.1,15
2014/2/16 5:53,6.2,16,6.3,16,9.9,16
2014/2/16 5:54,6.3,16,6.3,16,13.1,15
2014/2/16 5:55,6.2,16,6.3,16,9.8,1
2014/2/16 5:56,6.4,16,6.4,16,10.5,16
2014/2/16 5:57,6.3,16,6.4,16,9.5,1
2014/2/16 5:58,6.3,16,6.4,16,11.3,16
2014/2/16 5:59,6.3,16,6.4,16,11.5,16
2014/2/16 6:00,6.1,16,6.3,16,8.7,15
2014/2/16 6:01,6.1,16,6.2,16,8.7,15
2014/2/16 6:02,6,16,6.1,16,6.3,14
2014/2/16 6:03,5.7,16,6,16,4.7,14
2014/2/16 6:04,5.4,15,5.6,16,6.9,16
2014/2/16 6:05,5.1,16,5.3,16,6.5,1
2014/2/16 6:06,4.7,16,5.1,16,4.3,2
2014/2/16 6:07,4.3,15,4.6,16,4.8,3
2014/2/16 6:08,3.9,15,4.3,16,7.1,16
2014/2/16 6:09,3.6,15,3.8,16,8.6,1
2014/2/16 6:10,3.7,15,3.8,16,9.5,1
2014/2/16 6:11,3.6,15,3.7,16,8.9,16
2014/2/16 6:12,3.8,16,3.8,16,12.2,15
2014/2/16 6:13,4.1,16,4.1,16,7.5,15
2014/2/16 6:14,4.2,16,4.2,15,7.8,15
2014/2/16 6:15,4.2,15,4.2,16,8.4,15
2014/2/16 6:16,4.4,15,4.4,16,7,15
2014/2/16 6:17,4.6,15,4.6,15,10,14
2014/2/16 6:18,4.8,15,4.8,15,8.2,16
2014/2/16 6:19,4.8,15,4.9,15,8.5,16
2014/2/16 6:20,4.7,15,4.9,15,7.9,14
2014/2/16 6:21,4.5,15,4.8,15,3.6,16
2014/2/16 6:22,4,15,4.4,15,1.6,7
2014/2/16 6:23,3.7,15,3.9,15,4.2,15
2014/2/16 6:24,3.5,15,3.6,15,5.6,1
2014/2/16 6:25,3.3,15,3.5,15,5.4,16
2014/2/16 6:26,3.4,16,3.5,15,8.2,16
2014/2/16 6:27,3.5,16,3.5,15,6.2,1
2014/2/16 6:28,3.4,15,3.5,15,6.4,14
2014/2/16 6:29,3.4,15,3.4,15,7.2,9
2014/2/16 6:30,3,15,3.3,15,4.7,12
2014/2/16 6:31,3,15,3,15,4.4,2
2014/2/16 6:32,3.1,15,3.1,15,5,2
2014/2/16 6:33,3.2,15,3.2,15,4.1,1
2014/2/16 6:34,3.3,15,3.3,15,7.5,15
2014/2/16 6:35,3.4,14,3.4,16,6,14
2014/2/16 6:36,3.4,14,3.5,16,9.2,15
2014/2/16 6:37,3.4,15,3.5,16,7.8,16
2014/2/16 6:38,3.5,15,3.5,14,8.2,15
2014/2/16 6:39,3.6,15,3.6,15,8.5,14
2014/2/16 6:40,3.8,15,3.8,15,6.4,16
2014/2/16 6:41,3.9,15,3.9,15,4.7,15
2014/2/16 6:42,3.9,15,3.9,15,3.2,16
2014/2/16 6:43,3.7,15,3.8,15,2.7,1
2014/2/16 6:44,3.6,15,3.7,15,8.5,15
2014/2/16 6:45,3.8,15,3.8,15,9.4,16
2014/2/16 6:46,4.2,15,4.2,15,14,15
2014/2/16 6:47,4.3,15,4.3,15,10,15
2014/2/16 6:48,4.1,15,4.2,15,5.8,16
2014/2/16 6:49,3.9,15,4.1,15,6.9,15
2014/2/16 6:50,3.7,15,3.9,15,5,16
2014/2/16 6:51,3.8,15,3.8,15,7.8,15
2014/2/16 6:52,4.2,15,4.2,15,11.5,15
2014/2/16 6:53,4.6,15,4.6,15,11.6,15
2014/2/16 6:54,4.6,15,4.7,15,6.9,16
2014/2/16 6:55,4.4,15,4.6,15,5.5,15
2014/2/16 6:56,3.7,15,4.4,15,3.9,15
2014/2/16 6:57,3.5,15,3.7,15,5.5,16
2014/2/16 6:58,3.8,16,3.8,15,8.7,1
2014/2/16 6:59,3.8,16,3.8,15,7.9,16
2014/2/16 7:00,4.1,16,4.1,15,8.9,16
2014/2/16 7:01,4.1,16,4.2,15,5.4,16
2014/2/16 7:02,4,16,4.1,15,5.1,14
2014/2/16 7:03,3.7,16,3.9,15,4.7,16
2014/2/16 7:04,3.9,16,3.9,15,9.8,15
2014/2/16 7:05,4,16,4,15,9.1,1
2014/2/16 7:06,4.3,16,4.3,16,5.6,16
2014/2/16 7:07,4.4,16,4.4,16,6.4,16
2014/2/16 7:08,4.2,16,4.4,16,8.4,1
2014/2/16 7:09,4.2,16,4.3,16,12.7,16
2014/2/16 7:10,4.2,16,4.2,16,8.7,16
2014/2/16 7:11,4.2,16,4.2,16,5.7,15
2014/2/16 7:12,4,16,4.2,16,5.1,15
2014/2/16 7:13,4.4,16,4.4,16,11.4,16
2014/2/16 7:14,4.5,16,4.5,16,8.5,1
2014/2/16 7:15,4.4,16,4.5,16,8.2,16
2014/2/16 7:16,4.4,16,4.4,16,6,16
2014/2/16 7:17,4.3,16,4.3,16,6.2,15
2014/2/16 7:18,4.4,16,4.5,16,9.3,16
2014/2/16 7:19,4.5,16,4.5,16,8.9,16
2014/2/16 7:20,4.5,16,4.6,16,8.3,15
2014/2/16 7:21,4.9,16,4.9,16,10,16
2014/2/16 7:22,5,16,5.1,16,7.7,15
2014/2/16 7:23,5.1,16,5.1,16,11.3,16
2014/2/16 7:24,5,16,5.1,16,8.9,14
2014/2/16 7:25,4.9,16,5,16,6.7,14
2014/2/16 7:26,5.2,16,5.2,15,9.5,15
2014/2/16 7:27,5.3,15,5.4,16,8.9,1
2014/2/16 7:28,5.2,16,5.3,16,8.3,1
2014/2/16 7:29,5.4,16,5.4,16,13.6,16
2014/2/16 7:30,5.7,16,5.7,16,12.4,15
2014/2/16 7:31,5.5,16,5.7,16,10.7,16
2014/2/16 7:32,5.8,16,5.8,16,10.7,15
2014/2/16 7:33,5.8,16,5.9,16,10.1,16
2014/2/16 7:34,5.5,16,5.7,16,6,16
2014/2/16 7:35,5.5,16,5.6,16,6.3,16
2014/2/16 7:36,5.4,16,5.5,16,7.2,12
2014/2/16 7:37,5.6,16,5.6,16,12.8,16
2014/2/16 7:38,5.8,16,5.8,16,10.9,15
2014/2/16 7:39,6,16,6.1,16,15.3,15
2014/2/16 7:40,5.9,16,6,16,10.7,15
2014/2/16 7:41,6.1,16,6.1,16,14.7,15
2014/2/16 7:42,6.2,16,6.2,16,14.3,15
2014/2/16 7:43,6.2,16,6.2,16,10.3,16
2014/2/16 7:44,6.2,15,6.3,16,6.8,14
2014/2/16 7:45,6.4,15,6.4,15,10.6,15
2014/2/16 7:46,6.5,16,6.5,15,9,14
2014/2/16 7:47,6.3,15,6.5,15,10.2,15
2014/2/16 7:48,6.1,16,6.3,15,7,16
2014/2/16 7:49,5.5,16,6,15,6.3,16
2014/2/16 7:50,5.2,16,5.4,15,8.5,16
2014/2/16 7:51,5,16,5.2,15,9.1,15
2014/2/16 7:52,4.4,16,4.9,15,5.4,16
2014/2/16 7:53,3.8,16,4.3,15,3.1,14
2014/2/16 7:54,3.7,16,3.8,15,3.6,14
2014/2/16 7:55,3.3,16,3.7,15,5,1
2014/2/16 7:56,3.1,16,3.3,16,4.7,7
2014/2/16 7:57,2.9,16,3,15,5.8,1
2014/2/16 7:58,2.8,16,2.9,16,4.7,15
2014/2/16 7:59,2.9,16,2.9,16,5.6,16
2014/2/16 8:00,2.7,16,2.9,16,4.2,16
2014/2/16 8:01,2.4,16,2.7,16,3.1,16
2014/2/16 8:02,2.4,16,2.4,16,2.6,15
2014/2/16 8:03,2.4,16,2.4,16,2,2
2014/2/16 8:04,2.5,16,2.5,16,4.8,1
2014/2/16 8:05,2.7,16,2.7,16,8.4,16
2014/2/16 8:06,2.8,16,2.8,16,4.4,1
2014/2/16 8:07,2.6,16,2.8,16,3.2,3
2014/2/16 8:08,2.7,1,2.7,16,5.8,15
2014/2/16 8:09,2.6,1,2.7,16,5.8,14
2014/2/16 8:10,2.5,1,2.5,16,3.3,1
2014/2/16 8:11,2.5,1,2.5,16,5.5,15
2014/2/16 8:12,2.7,16,2.7,16,7.2,15
2014/2/16 8:13,2.8,16,2.8,16,5,15
2014/2/16 8:14,2.8,16,2.8,16,6,15
2014/2/16 8:15,2.6,16,2.8,16,5.5,15
2014/2/16 8:16,2.6,16,2.7,16,5.5,15
2014/2/16 8:17,2.9,16,2.9,16,7,15
2014/2/16 8:18,2.9,16,2.9,16,6.3,12
2014/2/16 8:19,3,16,3,16,7.2,1
2014/2/16 8:20,3.3,15,3.3,15,5.8,16
2014/2/16 8:21,3.5,16,3.5,16,8.1,15
2014/2/16 8:22,3.6,16,3.6,16,6.7,1
2014/2/16 8:23,3.7,16,3.7,16,6.2,16
2014/2/16 8:24,3.7,16,3.8,16,4.8,1
2014/2/16 8:25,3.8,16,3.8,16,6.1,15
2014/2/16 8:26,4,16,4.1,16,11.3,15
2014/2/16 8:27,4.1,16,4.1,16,6,15
2014/2/16 8:28,4.1,16,4.1,16,7.4,15
2014/2/16 8:29,4.2,16,4.2,16,10.6,15
2014/2/16 8:30,4.4,16,4.4,16,11.5,15
2014/2/16 8:31,4.7,16,4.7,16,11.1,16
2014/2/16 8:32,4.5,15,4.6,16,5.8,15
2014/2/16 8:33,4.3,15,4.4,16,7.1,14
2014/2/16 8:34,4.5,15,4.5,16,8.1,14
2014/2/16 8:35,4.7,15,4.8,15,8.9,14
2014/2/16 8:36,4.4,15,4.7,15,3.9,16
2014/2/16 8:37,4.2,15,4.4,15,4.3,16
2014/2/16 8:38,4.1,15,4.2,15,6.3,15
2014/2/16 8:39,4,16,4.1,15,5,2
2014/2/16 8:40,3.5,16,3.9,15,5,2
2014/2/16 8:41,3.3,16,3.5,15,7.2,1
2014/2/16 8:42,3.2,16,3.3,15,4.9,16
2014/2/16 8:43,3.4,16,3.4,15,8.4,16
2014/2/16 8:44,3.4,16,3.5,15,10.6,15
2014/2/16 8:45,3.7,16,3.7,15,12.2,15
2014/2/16 8:46,4.1,16,4.1,15,11.9,15
2014/2/16 8:47,4.4,16,4.4,16,9.5,16
2014/2/16 8:48,4.5,16,4.5,16,6.4,15
2014/2/16 8:49,4.7,16,4.7,16,7.2,15
2014/2/16 8:50,5,15,5,15,7.8,15
2014/2/16 8:51,5,15,5,15,6.9,14
2014/2/16 8:52,5.6,15,5.6,15,10.7,15
2014/2/16 8:53,5.7,15,5.8,15,9.4,15
2014/2/16 8:54,5.8,15,5.8,15,10.7,16
2014/2/16 8:55,5.6,15,5.8,15,10.3,15
2014/2/16 8:56,5.6,15,5.6,15,11.8,15
2014/2/16 8:57,5.7,15,5.8,15,13.4,15
2014/2/16 8:58,5.6,15,5.7,15,5.6,2
2014/2/16 8:59,5.8,15,5.8,15,12.7,15
2014/2/16 9:00,5.7,15,5.8,15,7.9,14
2014/2/16 9:01,5.7,15,5.7,15,8.5,16
2014/2/16 9:02,5.3,16,5.7,15,8.7,16
2014/2/16 9:03,5.4,15,5.4,15,9.4,16
2014/2/16 9:04,5.2,16,5.4,15,8.5,16
2014/2/16 9:05,5,16,5.1,15,7.6,16
2014/2/16 9:06,5,16,5.1,15,9.9,1
2014/2/16 9:07,4.9,16,5.1,15,10.6,15
2014/2/16 9:08,5,15,5,15,10.7,15
2014/2/16 9:09,5.1,15,5.1,15,15,15
2014/2/16 9:10,5.3,16,5.3,15,12.6,16
2014/2/16 9:11,5.1,16,5.3,15,5,16
2014/2/16 9:12,5,16,5.1,15,6,16
2014/2/16 9:13,4.9,16,5,15,9.3,16
2014/2/16 9:14,5.3,16,5.3,16,15.2,15
2014/2/16 9:15,5.6,16,5.6,16,9.7,14
2014/2/16 9:16,5.8,16,5.8,16,10.3,15
2014/2/16 9:17,5.6,16,5.7,16,8.5,15
2014/2/16 9:18,5.6,16,5.6,16,8.3,16
2014/2/16 9:19,5.3,16,5.6,16,8.6,15
2014/2/16 9:20,4.9,15,5.2,16,7,16
2014/2/16 9:21,5.1,15,5.1,16,6.9,15
2014/2/16 9:22,5.4,15,5.4,16,7,16
2014/2/16 9:23,5.6,15,5.6,16,12.8,15
2014/2/16 9:24,5.4,15,5.6,16,9.1,15
2014/2/16 9:25,5.1,15,5.4,16,8.2,16
2014/2/16 9:26,4.6,15,5.1,16,4.2,15
2014/2/16 9:27,4.4,15,4.6,16,4.2,15
2014/2/16 9:28,4.2,16,4.4,16,4.1,16
2014/2/16 9:29,3.9,16,4.1,15,4.4,2
2014/2/16 9:30,4,16,4,15,6.3,16
2014/2/16 9:31,3.7,16,4,15,5.1,1
2014/2/16 9:32,3.6,16,3.7,15,9.3,15
2014/2/16 9:33,3.2,16,3.6,15,5.7,15
2014/2/16 9:34,3,16,3.1,15,11.3,15
2014/2/16 9:35,3.1,16,3.1,15,7.4,16
2014/2/16 9:36,3,16,3.1,15,4.4,14
2014/2/16 9:37,3.2,16,3.2,15,7,16
2014/2/16 9:38,3.4,16,3.4,16,6.4,16
2014/2/16 9:39,3.5,15,3.5,16,6.3,16
2014/2/16 9:40,3.6,15,3.6,16,7.8,16
2014/2/16 9:41,3.9,15,3.9,15,12.5,14
2014/2/16 9:42,4.2,15,4.2,15,12.4,15
2014/2/16 9:43,4.3,15,4.3,15,9.1,15
2014/2/16 9:44,4.6,15,4.6,15,12.4,15
2014/2/16 9:45,4.9,15,4.9,15,14.4,14
2014/2/16 9:46,5.2,15,5.2,15,9.7,15
2014/2/16 9:47,5.4,15,5.4,15,8.5,16
2014/2/16 9:48,5.3,15,5.4,15,5,16
2014/2/16 9:49,5.4,15,5.4,15,7.8,14
2014/2/16 9:50,5.3,15,5.4,15,8.3,14
2014/2/16 9:51,5.1,16,5.3,15,5,2
2014/2/16 9:52,4.5,16,5,15,2.9,15
2014/2/16 9:53,4.4,16,4.5,15,4.8,15
2014/2/16 9:54,4,16,4.3,15,7.6,15
2014/2/16 9:55,3.7,16,4.1,15,14,15
2014/2/16 9:56,3.9,16,3.9,15,11.4,16
2014/2/16 9:57,3.9,16,4,15,11.6,16
2014/2/16 9:58,3.9,16,3.9,15,6.3,1
2014/2/16 9:59,4,16,4.1,15,7.2,15
2014/2/16 10:00,4,16,4.1,15,5.4,1
2014/2/16 10:01,4,16,4,16,4.3,16
2014/2/16 10:02,4.3,16,4.3,16,7.7,16
2014/2/16 10:03,4.5,16,4.5,16,9.8,15
2014/2/16 10:04,4.6,16,4.7,16,8.9,15
2014/2/16 10:05,4.6,16,4.7,16,8.9,16
2014/2/16 10:06,4.5,16,4.6,16,11.9,15
2014/2/16 10:07,4.5,15,4.5,16,8.4,14
2014/2/16 10:08,4.8,15,4.8,15,10.8,15
2014/2/16 10:09,5,15,5,15,11.8,15
2014/2/16 10:10,5,15,5,15,7.9,15
2014/2/16 10:11,5.1,15,5.2,15,7.5,16
2014/2/16 10:12,4.7,15,5,15,1.8,16
2014/2/16 10:13,4.3,16,4.7,15,2.7,8
2014/2/16 10:14,3.9,15,4.3,15,5.5,15
2014/2/16 10:15,3.9,15,4,15,7.4,16
2014/2/16 10:16,3.6,15,3.9,15,6.9,15
2014/2/16 10:17,3.3,15,3.6,15,7.1,15
2014/2/16 10:18,3.1,15,3.4,15,5.1,15
2014/2/16 10:19,2.8,15,3.1,15,5.2,15
2014/2/16 10:20,2.6,15,2.8,15,4.8,1
2014/2/16 10:21,2.4,15,2.6,15,2.4,3
2014/2/16 10:22,2.4,15,2.4,15,3.5,4
2014/2/16 10:23,2.4,16,2.5,16,3.2,3
2014/2/16 10:24,2.6,16,2.6,15,4.5,16
2014/2/16 10:25,2.4,16,2.6,15,6.2,15
2014/2/16 10:26,2.2,1,2.3,15,6.7,16
2014/2/16 10:27,2.3,1,2.3,15,6.3,15
2014/2/16 10:28,2.3,16,2.3,15,5,15
2014/2/16 10:29,2.1,1,2.3,15,3.3,15
2014/2/16 10:30,2,1,2.1,15,5,15
2014/2/16 10:31,2.4,16,2.4,16,7.7,15
2014/2/16 10:32,2.7,16,2.7,16,7.7,16
2014/2/16 10:33,3.1,15,3.1,15,8.9,13
2014/2/16 10:34,3.3,15,3.3,15,6.9,13
2014/2/16 10:35,3.7,15,3.7,15,8.7,15
2014/2/16 10:36,3.8,15,3.8,15,9.8,15
2014/2/16 10:37,4,15,4.1,15,10.9,16
2014/2/16 10:38,4.5,15,4.5,15,11.6,15
2014/2/16 10:39,5,15,5,15,11.5,14
2014/2/16 10:40,5.5,15,5.5,15,10.9,14
2014/2/16 10:41,5.7,15,5.7,15,13.2,14
2014/2/16 10:42,5.9,15,5.9,15,10.6,16
2014/2/16 10:43,5.8,15,6,15,14.3,16
2014/2/16 10:44,5.4,15,5.8,15,1.9,9
2014/2/16 10:45,4.9,15,5.4,15,1.1,15
2014/2/16 10:46,4.7,15,4.9,15,3.3,2
2014/2/16 10:47,4.3,15,4.6,15,5.2,2
2014/2/16 10:48,3.8,15,4.3,15,5.5,1
2014/2/16 10:49,3.4,16,3.9,15,4.9,16
2014/2/16 10:50,3.2,16,3.4,15,8.1,16
2014/2/16 10:51,2.8,16,3.2,15,4.7,14
2014/2/16 10:52,2.6,16,2.8,15,5.1,15
2014/2/16 10:53,2.4,16,2.5,15,6.4,13
2014/2/16 10:54,2.7,16,2.7,15,7.6,15